| time (UTC) | temp F | wind direction | speed MPH | gust MPH | rain 1hr in | rain 24hr in | rain mn in | humidity % | barometer mb |
| 20260902151313 | 60 | 136 | 0.0 | 5.0 | 0.02 | 0.02 | 0.02 | 78 | 1005.0 |
| 20260902150331 | 61 | 144 | 0.0 | 4.0 | 0.01 | 0.01 | 0.01 | 75 | 1005.0 |
| 20260902145351 | 62 | 159 | 0.0 | 0.0 | 0.00 | 0.00 | 0.00 | 74 | 1005.1 |
| 20260902144349 | 63 | 163 | 0.0 | 0.0 | 0.00 | 0.00 | 0.00 | 68 | 1005.1 |
| 20260902143328 | 62 | 163 | 0.0 | 0.0 | 0.00 | 0.00 | 0.00 | 64 | 1005.1 |
| 20260902142328 | 62 | 163 | 0.0 | 3.0 | 0.00 | 0.00 | 0.00 | 64 | 1005.1 |
| 20260902141325 | 61 | 161 | 0.0 | 4.0 | 0.00 | 0.00 | 0.00 | 66 | 1005.1 |
| 20260902140325 | 60 | 155 | 0.0 | 5.0 | 0.00 | 0.00 | 0.00 | 68 | 1005.1 |
| 20260902135325 | 58 | 135 | 0.0 | 2.0 | 0.00 | 0.00 | 0.00 | 75 | 1005.2 |
| 20260902134322 | 57 | 82 | 0.0 | 1.0 | 0.00 | 0.00 | 0.00 | 81 | 1005.5 |
| 20260902133322 | 57 | 81 | 0.0 | 0.0 | 0.00 | 0.00 | 0.00 | 83 | 1005.5 |
| 20260902132329 | 56 | 81 | 0.0 | 0.0 | 0.00 | 0.00 | 0.00 | 84 | 1005.6 |
| 20260902131327 | 56 | 81 | 0.0 | 0.0 | 0.00 | 0.00 | 0.00 | 85 | 1005.7 |
| 20260902130327 | 56 | 81 | 0.0 | 0.0 | 0.00 | 0.00 | 0.00 | 85 | 1005.7 |
| 20260902125325 | 55 | 81 | 0.0 | 0.0 | 0.00 | 0.00 | 0.00 | 85 | 1005.7 |
| 20260902124345 | 55 | 81 | 0.0 | 0.0 | 0.00 | 0.00 | 0.00 | 85 | 1006.0 |
| 20260902123322 | 55 | 81 | 0.0 | 0.0 | 0.00 | 0.00 | 0.00 | 85 | 1006.0 |
| 20260902122320 | 55 | 80 | 0.0 | 0.0 | 0.00 | 0.00 | 0.00 | 85 | 1006.2 |
| 20260902121341 | 55 | 81 | 0.0 | 0.0 | 0.00 | 0.00 | 0.00 | 85 | 1006.5 |
| 20260902120318 | 55 | 80 | 0.0 | 0.0 | 0.00 | 0.00 | 0.00 | 84 | 1006.5 |
| 20260902115315 | 56 | 81 | 0.0 | 0.0 | 0.00 | 0.00 | 0.00 | 84 | 1006.7 |
| 20260902114319 | 56 | 80 | 0.0 | 0.0 | 0.00 | 0.00 | 0.00 | 83 | 1006.8 |
| 20260902113319 | 56 | 80 | 0.0 | 0.0 | 0.00 | 0.00 | 0.00 | 83 | 1006.8 |
| 20260902112336 | 56 | 81 | 0.0 | 0.0 | 0.00 | 0.00 | 0.00 | 83 | 1007.0 |
| 20260902111314 | 56 | 120 | 0.0 | 1.0 | 0.00 | 0.00 | 0.00 | 84 | 1006.7 |
| 20260902110313 | 55 | 286 | 0.0 | 1.0 | 0.00 | 0.00 | 0.00 | 84 | 1006.7 |
| 20260902105333 | 56 | 286 | 0.0 | 0.0 | 0.00 | 0.00 | 0.00 | 83 | 1007.2 |
| 20260902104312 | 56 | 286 | 0.0 | 0.0 | 0.00 | 0.00 | 0.00 | 82 | 1007.3 |
| 20260902103331 | 57 | 286 | 0.0 | 0.0 | 0.00 | 0.00 | 0.00 | 81 | 1007.3 |
| 20260902102349 | 57 | 286 | 0.0 | 0.0 | 0.00 | 0.00 | 0.00 | 80 | 1007.3 |
| 20260902101327 | 58 | 286 | 0.0 | 0.0 | 0.00 | 0.00 | 0.00 | 79 | 1007.3 |
| 20260902100326 | 58 | 286 | 0.0 | 0.0 | 0.00 | 0.00 | 0.00 | 79 | 1007.3 |
| 20260902095323 | 58 | 286 | 0.0 | 0.0 | 0.00 | 0.00 | 0.00 | 79 | 1007.7 |
| 20260902094324 | 58 | 286 | 0.0 | 0.0 | 0.00 | 0.00 | 0.00 | 78 | 1007.8 |
| 20260902093323 | 58 | 286 | 0.0 | 0.0 | 0.00 | 0.00 | 0.00 | 79 | 1007.8 |
| 20260902092323 | 58 | 286 | 0.0 | 0.0 | 0.00 | 0.00 | 0.00 | 78 | 1008.0 |
| 20260902091322 | 58 | 286 | 0.0 | 0.0 | 0.00 | 0.00 | 0.00 | 78 | 1008.0 |
| 20260902090322 | 59 | 286 | 0.0 | 0.0 | 0.00 | 0.00 | 0.00 | 78 | 1008.0 |
| 20260902085341 | 59 | 286 | 0.0 | 0.0 | 0.00 | 0.00 | 0.00 | 78 | 1008.2 |
| 20260902084317 | 59 | 286 | 0.0 | 0.0 | 0.00 | 0.00 | 0.00 | 78 | 1008.3 |
| 20260902083321 | 59 | 286 | 0.0 | 0.0 | 0.00 | 0.00 | 0.00 | 78 | 1008.3 |
| 20260902082319 | 59 | 286 | 0.0 | 0.0 | 0.00 | 0.00 | 0.00 | 78 | 1008.3 |
| 20260902081320 | 59 | 286 | 0.0 | 0.0 | 0.00 | 0.00 | 0.00 | 78 | 1008.3 |
| 20260902080320 | 59 | 286 | 0.0 | 0.0 | 0.00 | 0.00 | 0.00 | 79 | 1008.3 |
| 20260902075318 | 59 | 286 | 0.0 | 0.0 | 0.00 | 0.00 | 0.00 | 79 | 1008.2 |
| 20260902074316 | 59 | 286 | 0.0 | 0.0 | 0.00 | 0.00 | 0.00 | 81 | 1008.3 |
| 20260902073319 | 59 | 286 | 0.0 | 0.0 | 0.00 | 0.00 | 0.00 | 81 | 1008.3 |
| 20260902072318 | 58 | 286 | 0.0 | 0.0 | 0.00 | 0.00 | 0.00 | 81 | 1008.3 |
| 20260902071317 | 58 | 286 | 0.0 | 0.0 | 0.00 | 0.00 | 0.00 | 82 | 1008.3 |
| 20260902070316 | 58 | 286 | 0.0 | 0.0 | 0.00 | 0.00 | 0.00 | 82 | 1008.3 |
| 20260902065335 | 58 | 286 | 0.0 | 0.0 | 0.00 | 0.00 | 0.00 | 83 | 1008.4 |
| 20260902064312 | 58 | 286 | 0.0 | 0.0 | 0.00 | 0.00 | 0.00 | 84 | 1008.6 |
| 20260902063331 | 58 | 286 | 0.0 | 0.0 | 0.00 | 0.00 | 0.00 | 84 | 1008.6 |
| 20260902062330 | 57 | 286 | 0.0 | 0.0 | 0.00 | 0.00 | 0.00 | 84 | 1008.8 |
| 20260902061411 | 57 | 286 | 0.0 | 0.0 | 0.00 | 0.00 | 0.00 | 83 | 1008.8 |
| 20260902061329 | 57 | 286 | 0.0 | 0.0 | 0.00 | 0.00 | 0.00 | 83 | 1008.8 |
| 20260902060329 | 58 | 286 | 0.0 | 0.0 | 0.00 | 0.00 | 0.00 | 83 | 1008.8 |
| 20260902055325 | 58 | 286 | 0.0 | 0.0 | 0.00 | 0.00 | 0.00 | 82 | 1008.9 |
| 20260902054325 | 59 | 286 | 0.0 | 0.0 | 0.00 | 0.00 | 0.00 | 81 | 1009.1 |
| 20260902053344 | 59 | 286 | 0.0 | 0.0 | 0.00 | 0.00 | 0.00 | 80 | 1009.1 |
| 20260902052326 | 60 | 286 | 0.0 | 0.0 | 0.00 | 0.00 | 0.00 | 79 | 1009.2 |
| 20260902051325 | 60 | 286 | 0.0 | 0.0 | 0.00 | 0.00 | 0.00 | 78 | 1009.3 |
| 20260902050324 | 61 | 286 | 0.0 | 0.0 | 0.00 | 0.00 | 0.00 | 77 | 1009.3 |
| 20260902045323 | 61 | 286 | 0.0 | 0.0 | 0.00 | 0.00 | 0.00 | 77 | 1009.3 |
| 20260902044322 | 62 | 286 | 0.0 | 0.0 | 0.00 | 0.00 | 0.00 | 75 | 1009.1 |
| 20260902043342 | 62 | 286 | 0.0 | 0.0 | 0.00 | 0.00 | 0.00 | 72 | 1009.1 |
| 20260902042320 | 63 | 286 | 0.0 | 0.0 | 0.00 | 0.00 | 0.00 | 69 | 1009.1 |
| 20260902041321 | 64 | 286 | 0.0 | 0.0 | 0.00 | 0.00 | 0.00 | 67 | 1008.8 |
| 20260902040320 | 65 | 286 | 0.0 | 0.0 | 0.00 | 0.00 | 0.00 | 65 | 1008.8 |
| 20260902035318 | 66 | 286 | 0.0 | 0.0 | 0.00 | 0.00 | 0.00 | 63 | 1008.8 |
| 20260902034317 | 66 | 286 | 0.0 | 6.0 | 0.00 | 0.00 | 0.00 | 63 | 1008.6 |
| 20260902033316 | 66 | 259 | 0.0 | 4.0 | 0.00 | 0.00 | 0.00 | 62 | 1008.6 |
| 20260902032335 | 67 | 257 | 0.0 | 0.0 | 0.00 | 0.00 | 0.00 | 62 | 1008.3 |
| 20260902031314 | 67 | 257 | 0.0 | 0.0 | 0.00 | 0.00 | 0.00 | 60 | 1008.2 |
| 20260902030314 | 68 | 257 | 0.0 | 0.0 | 0.00 | 0.00 | 0.00 | 59 | 1008.2 |
| 20260902025313 | 68 | 257 | 0.0 | 2.0 | 0.00 | 0.00 | 0.00 | 58 | 1008.2 |
| 20260902024316 | 69 | 254 | 0.0 | 7.0 | 0.00 | 0.00 | 0.00 | 57 | 1008.1 |
| 20260902023314 | 69 | 245 | 1.0 | 7.0 | 0.00 | 0.00 | 0.00 | 56 | 1008.1 |
| 20260902022313 | 69 | 299 | 0.0 | 4.0 | 0.00 | 0.00 | 0.00 | 56 | 1007.9 |
| 20260902021333 | 70 | 326 | 1.0 | 6.0 | 0.00 | 0.00 | 0.00 | 55 | 1007.8 |
| 20260902020330 | 70 | 309 | 0.0 | 3.0 | 0.00 | 0.00 | 0.00 | 55 | 1007.8 |
| 20260902015329 | 71 | 291 | 0.0 | 6.0 | 0.00 | 0.00 | 0.00 | 54 | 1007.9 |
| 20260902014327 | 71 | 267 | 0.0 | 6.0 | 0.00 | 0.00 | 0.00 | 53 | 1007.8 |
| 20260902013327 | 72 | 300 | 0.0 | 8.0 | 0.00 | 0.00 | 0.00 | 53 | 1007.8 |
| 20260902012325 | 72 | 294 | 0.0 | 8.0 | 0.00 | 0.00 | 0.00 | 52 | 1007.8 |
| 20260902011344 | 72 | 265 | 1.0 | 6.0 | 0.00 | 0.00 | 0.00 | 52 | 1007.7 |
| 20260902010323 | 72 | 305 | 1.0 | 9.0 | 0.00 | 0.00 | 0.00 | 51 | 1007.7 |
| 20260902005320 | 72 | 262 | 2.0 | 10.0 | 0.00 | 0.00 | 0.00 | 51 | 1007.7 |
| 20260902004340 | 73 | 187 | 3.0 | 5.0 | 0.00 | 0.00 | 0.00 | 51 | 1007.6 |
| 20260902003317 | 72 | 341 | 1.0 | 8.0 | 0.00 | 0.00 | 0.00 | 51 | 1007.6 |
| 20260902002317 | 72 | 217 | 1.0 | 7.0 | 0.00 | 0.00 | 0.00 | 51 | 1007.6 |
| 20260902001317 | 73 | 227 | 4.0 | 10.0 | 0.00 | 0.00 | 0.00 | 49 | 1007.6 |
| 20260902000322 | 74 | 275 | 2.0 | 8.0 | 0.00 | 0.00 | 0.00 | 49 | 1007.6 |
| 20260901235319 | 73 | 299 | 0.0 | 4.0 | 0.00 | 0.00 | 0.00 | 52 | 1007.5 |
| 20260901234315 | 73 | 318 | 2.0 | 7.0 | 0.00 | 0.00 | 0.00 | 53 | 1007.7 |
| 20260901233314 | 73 | 236 | 1.0 | 8.0 | 0.00 | 0.00 | 0.00 | 53 | 1007.7 |
| 20260901232312 | 73 | 270 | 4.0 | 11.0 | 0.00 | 0.00 | 0.00 | 52 | 1007.5 |
| 20260901231329 | 74 | 254 | 4.0 | 12.0 | 0.00 | 0.00 | 0.00 | 51 | 1007.4 |
| 20260901230330 | 74 | 246 | 3.0 | 11.0 | 0.00 | 0.00 | 0.00 | 49 | 1007.4 |
| 20260901225328 | 75 | 247 | 4.0 | 8.0 | 0.00 | 0.00 | 0.00 | 49 | 1007.4 |
| 20260901224326 | 74 | 261 | 3.0 | 7.0 | 0.00 | 0.00 | 0.00 | 48 | 1007.4 |
| 20260901223326 | 74 | 200 | 1.0 | 10.0 | 0.00 | 0.00 | 0.00 | 49 | 1007.4 |
| 20260901222325 | 75 | 237 | 3.0 | 9.0 | 0.00 | 0.00 | 0.00 | 47 | 1007.4 |
| 20260901221325 | 76 | 309 | 2.0 | 9.0 | 0.00 | 0.00 | 0.00 | 46 | 1007.7 |
| 20260901220325 | 76 | 294 | 3.0 | 12.0 | 0.00 | 0.00 | 0.00 | 46 | 1007.7 |
| 20260901215345 | 75 | 290 | 2.0 | 7.0 | 0.00 | 0.00 | 0.00 | 48 | 1007.7 |
| 20260901214323 | 75 | 355 | 1.0 | 6.0 | 0.00 | 0.00 | 0.00 | 48 | 1007.6 |
| 20260901213322 | 75 | 272 | 1.0 | 7.0 | 0.00 | 0.00 | 0.00 | 47 | 1007.6 |
| 20260901212320 | 76 | 236 | 0.0 | 14.0 | 0.00 | 0.00 | 0.00 | 46 | 1007.7 |
| 20260901211320 | 75 | 61 | 0.0 | 3.0 | 0.00 | 0.00 | 0.00 | 48 | 1007.8 |
| 20260901210321 | 74 | 360 | 1.0 | 5.0 | 0.00 | 0.00 | 0.00 | 49 | 1007.8 |
| 20260901205323 | 74 | 302 | 3.0 | 8.0 | 0.00 | 0.00 | 0.00 | 48 | 1007.9 |
| 20260901204323 | 74 | 348 | 3.0 | 8.0 | 0.00 | 0.00 | 0.00 | 50 | 1008.1 |
| 20260901203322 | 74 | 307 | 4.0 | 8.0 | 0.00 | 0.00 | 0.00 | 49 | 1008.1 |
| 20260901202338 | 73 | 295 | 1.0 | 6.0 | 0.00 | 0.00 | 0.00 | 51 | 1008.3 |
| 20260901201318 | 73 | 329 | 2.0 | 8.0 | 0.00 | 0.00 | 0.00 | 51 | 1008.3 |
| 20260901200318 | 72 | 327 | 2.0 | 9.0 | 0.00 | 0.00 | 0.00 | 53 | 1008.3 |
| 20260901195316 | 72 | 227 | 3.0 | 6.0 | 0.00 | 0.00 | 0.00 | 52 | 1008.5 |
| 20260901194315 | 72 | 325 | 1.0 | 8.0 | 0.00 | 0.00 | 0.00 | 52 | 1008.8 |
| 20260901193313 | 71 | 266 | 0.0 | 4.0 | 0.00 | 0.00 | 0.00 | 53 | 1008.8 |
| 20260901192330 | 70 | 239 | 3.0 | 6.0 | 0.00 | 0.00 | 0.00 | 54 | 1009.0 |
| 20260901191330 | 69 | 265 | 2.0 | 5.0 | 0.00 | 0.00 | 0.00 | 55 | 1009.2 |
| 20260901190332 | 68 | 261 | 1.0 | 6.0 | 0.00 | 0.00 | 0.00 | 57 | 1009.2 |
| 20260901185330 | 68 | 291 | 1.0 | 5.0 | 0.00 | 0.00 | 0.00 | 57 | 1009.2 |
| 20260901184330 | 68 | 189 | 0.0 | 3.0 | 0.00 | 0.00 | 0.00 | 56 | 1009.2 |
| 20260901183349 | 68 | 123 | 0.0 | 4.0 | 0.00 | 0.00 | 0.00 | 58 | 1009.2 |
| 20260901182327 | 69 | 153 | 1.0 | 8.0 | 0.00 | 0.00 | 0.00 | 57 | 1009.3 |
| 20260901181325 | 69 | 256 | 2.0 | 6.0 | 0.00 | 0.00 | 0.00 | 56 | 1009.3 |
| 20260901180329 | 68 | 144 | 0.0 | 7.0 | 0.00 | 0.00 | 0.00 | 59 | 1009.3 |
| 20260901175326 | 67 | 134 | 1.0 | 7.0 | 0.00 | 0.00 | 0.00 | 61 | 1009.3 |
| 20260901174347 | 66 | 55 | 1.0 | 4.0 | 0.00 | 0.00 | 0.00 | 63 | 1009.3 |
| 20260901173328 | 66 | 122 | 1.0 | 4.0 | 0.00 | 0.00 | 0.00 | 65 | 1009.3 |
| 20260901172325 | 65 | 106 | 0.0 | 3.0 | 0.00 | 0.00 | 0.00 | 67 | 1009.3 |
| 20260901171325 | 64 | 132 | 0.0 | 1.0 | 0.00 | 0.00 | 0.00 | 70 | 1009.4 |
| 20260901170326 | 63 | 133 | 0.0 | 1.0 | 0.00 | 0.00 | 0.00 | 71 | 1009.4 |
| 20260901165327 | 62 | 164 | 0.0 | 0.0 | 0.00 | 0.00 | 0.00 | 72 | 1009.5 |
| 20260901164327 | 62 | 200 | 0.0 | 0.0 | 0.00 | 0.00 | 0.00 | 74 | 1009.7 |
| 20260901163325 | 61 | 200 | 0.0 | 0.0 | 0.00 | 0.00 | 0.00 | 75 | 1009.7 |
| 20260901162322 | 61 | 200 | 0.0 | 0.0 | 0.00 | 0.00 | 0.00 | 76 | 1009.8 |
| 20260901161322 | 60 | 200 | 0.0 | 1.0 | 0.00 | 0.00 | 0.00 | 77 | 1009.6 |
| 20260901160344 | 60 | 200 | 0.0 | 0.0 | 0.00 | 0.00 | 0.00 | 78 | 1009.6 |
| 20260901155322 | 60 | 200 | 0.0 | 0.0 | 0.00 | 0.00 | 0.00 | 78 | 1009.8 |
| 20260901154320 | 60 | 200 | 0.0 | 1.0 | 0.00 | 0.00 | 0.00 | 78 | 1009.6 |
| 20260901153320 | 60 | 308 | 0.0 | 0.0 | 0.00 | 0.00 | 0.00 | 79 | 1009.6 |
| 20260901152322 | 59 | 308 | 0.0 | 0.0 | 0.00 | 0.00 | 0.00 | 80 | 1009.5 |